STARLINK-34429, 64464

Orbit data source: Space-Track

STARLINK-34429, 64464 is a payload satellite owned by SpaceX/Seattle (US) in LEO that was launched on Wed, 18 Jun 2025 UTC via an FALCON 9 launch vehicle from the Air Force Eastern Test Range (AFETR). Payload-class satellites include a variety of spacecraft equipped with specific instruments for various scientific and technological missions. These include communications satellites like Starlink; space stations such as the ISS; scientific satellites like the Hubble; Earth observation satellites from companies like Planet Labs, Umbra, and HawkEye 360; GPS; miniature CubeSats for education and research; and military/defense satellites.

Loading next visibility...
Identifier
64464, 2025-130AC
Orbit
LEO
Country
Flag of USUS
Related business
Manufacturer
SpaceX/Seattle
Mission
Operational Commercial Communications
Bus & Motor
STARLINK V2MO, Unknown motor
Mass
575 kg wet, ~530 kg dry
Launch date (UTC)
2025-06-18 (1 year ago)
Launch vehicle
FALCON 9
Launch site
Air Force Eastern Test Range (AFETR)
Object type
Payload
Rocket body
Debris
Shape & HBR
Box + 2 Pan, 17.7 m
Radar Cross Section
36.964 m², Large (>1 m²)

Expand to show TLE details & history
Last TLE update: 10 hours ago

TLE from 10 hours ago
0 STARLINK-34429
1 64464U 25130AC  26171.42300679  .00019969  00000-0  60042-3 0  9992
2 64464  53.1607 329.8142 0001939  84.8266 275.2958 15.34407380 56456
Epoch: 2026-06-20T10:09Z
TLE epoch observation values (Epoch: 2026-06-20T10:09:07.786Z)
Latitude
-0.00002°
Longitude
-91.1061°
Altitude
463.461 km
Speed
7.636 km/s
True Right ascension
21h 59m 15s
True Declination
0° 00' 00"
Sunlit
Object was in full shadow at epoch
Visualization orbit readout
Latitude
Unknown
Longitude
Unknown
Altitude
Unknown
Speed
Unknown
Apparent Right ascension
Unknown
Apparent Declination
Unknown
Sunlit
N/A
Visualization observer readout
Local Sidereal Time
07:12:54
Azimuth
Unknown
Elevation
Unknown
Doppler factor
Unknown
Orbital elements
Apogee altitude
464.265 km
Perigee altitude
461.612 km
Semi-major axis
6,841.075 km
Eccentricity
0.00019
Inclination
53.1607°
RAAN
329.8142°
Arg. of periapsis
84.8266°
True anomaly
275.27368°
Mean anomaly
275.2958°
Eccentric anomaly
275.28474°
Mean motion
3.83581 °/min
Orbital period
93.85 mins
BSTAR
0.00060042
Loading maneuver chart data...
Computing Atmospheric mass density...
Loading historical data...
Loading historical data...
Loading historical data...
Loading historical data...
Loading historical data...
Loading historical data...
Loading historical data...

Documentation

Showing up to 5 results
|